FW0668 Weather Reports


Display with metric or nautical units.
time (UTC)temp
F
wind
direction
speed
MPH
gust
MPH
rain 1hr
in
rain 24hr
in
rain mn
in
humidity
%
barometer
mb
20260504002003 63 214 11.0 15.0 0.00 0.00 0.00 57 1007.6
20260504001503 63 215 13.0 17.0 0.00 0.00 0.00 56 1007.6
20260504001003 64 214 12.0 16.0 0.00 0.00 0.00 55 1007.6
20260504000503 64 215 13.0 19.0 0.00 0.00 0.00 54 1007.6
20260504000003 64 214 16.0 22.0 0.00 0.00 0.00 53 1007.9
20260503235503 64 224 16.0 25.0 0.00 0.00 0.00 52 1007.9
20260503235003 64 219 15.0 21.0 0.00 0.00 0.00 52 1007.9
20260503234503 65 224 16.0 22.0 0.00 0.00 0.00 52 1007.6
20260503234024 65 216 17.0 27.0 0.00 0.00 0.00 52 1007.9
20260503233524 65 217 18.0 25.0 0.00 0.00 0.00 51 1007.6
20260503233024 65 222 18.0 26.0 0.00 0.00 0.00 51 1007.9
20260503232503 65 218 18.0 21.0 0.00 0.00 0.00 53 1007.9
20260503232003 65 215 16.0 24.0 0.00 0.00 0.00 52 1007.9
20260503231503 65 215 17.0 22.0 0.00 0.00 0.00 52 1007.9
20260503231024 65 225 18.0 23.0 0.00 0.00 0.00 51 1007.9
20260503230503 65 222 20.0 34.0 0.00 0.00 0.00 51 1007.9
20260503230003 65 217 18.0 26.0 0.00 0.00 0.00 51 1008.3
20260503225503 65 218 19.0 26.0 0.00 0.00 0.00 51 1007.9
20260503225003 65 218 21.0 32.0 0.00 0.00 0.00 51 1007.9
20260503224503 64 219 17.0 25.0 0.00 0.00 0.00 53 1007.9
20260503224003 64 216 19.0 26.0 0.00 0.00 0.00 52 1008.3
20260503223503 64 215 19.0 27.0 0.00 0.00 0.00 52 1008.3
20260503223003 64 213 22.0 35.0 0.00 0.00 0.00 53 1008.3
20260503222503 65 218 23.0 33.0 0.00 0.00 0.00 52 1008.3
20260503222003 65 212 25.0 33.0 0.00 0.00 0.00 50 1008.3
20260503221503 64 214 23.0 33.0 0.00 0.00 0.00 54 1008.3
20260503221003 64 216 23.0 32.0 0.00 0.00 0.00 55 1008.3
20260503220503 63 215 25.0 34.0 0.00 0.00 0.00 53 1007.9
20260503220003 63 211 24.0 34.0 0.00 0.00 0.00 54 1007.9
20260503215503 63 217 23.0 30.0 0.00 0.00 0.00 54 1008.3
20260503215003 63 222 23.0 33.0 0.00 0.00 0.00 54 1008.3
20260503214503 62 216 20.0 27.0 0.00 0.00 0.00 56 1008.3
20260503214003 62 229 21.0 27.0 0.00 0.00 0.00 55 1008.3
20260503213503 62 210 22.0 32.0 0.00 0.00 0.00 56 1008.3
20260503213003 62 211 22.0 31.0 0.00 0.00 0.00 56 1008.3
20260503212503 62 213 22.0 41.0 0.00 0.00 0.00 56 1008.3
20260503212003 62 208 23.0 33.0 0.00 0.00 0.00 55 1008.6
20260503211503 63 219 26.0 38.0 0.00 0.00 0.00 54 1008.9
20260503211003 63 218 27.0 40.0 0.00 0.00 0.00 53 1008.6
20260503210503 63 214 23.0 34.0 0.00 0.00 0.00 55 1009.3
20260503210003 63 212 21.0 32.0 0.00 0.00 0.00 57 1008.9
20260503205503 62 215 28.0 39.0 0.00 0.00 0.00 56 1009.3
20260503205003 62 218 24.0 30.0 0.00 0.00 0.00 57 1008.9
20260503204524 62 207 23.0 26.0 0.00 0.00 0.00 57 1009.3
20260503204003 62 213 28.0 38.0 0.00 0.00 0.00 56 1009.3
20260503203503 62 212 26.0 36.0 0.00 0.00 0.00 56 1009.6
20260503203003 61 209 27.0 35.0 0.00 0.00 0.00 57 1009.3
20260503202503 62 208 25.0 29.0 0.00 0.00 0.00 57 1008.9
20260503202003 62 209 23.0 31.0 0.00 0.00 0.00 56 1009.6
20260503201524 62 203 26.0 34.0 0.00 0.00 0.00 55 1009.3
20260503201003 62 215 22.0 31.0 0.00 0.00 0.00 56 1010.0
20260503200503 61 211 23.0 30.0 0.00 0.00 0.00 53 1010.0
20260503200003 61 202 19.0 24.0 0.00 0.00 0.00 54 1010.3
20260503195503 61 207 23.0 39.0 0.00 0.00 0.00 54 1010.7
20260503195024 62 211 23.0 26.0 0.00 0.00 0.00 54 1010.3
20260503194524 62 210 23.0 36.0 0.00 0.00 0.00 53 1010.3
20260503194003 62 211 24.0 36.0 0.00 0.00 0.00 51 1010.7
20260503193524 62 207 23.0 31.0 0.00 0.00 0.00 51 1011.0
20260503193003 62 213 25.0 35.0 0.00 0.00 0.00 51 1011.0
20260503192503 62 214 23.0 30.0 0.00 0.00 0.00 49 1011.4
20260503192003 62 215 24.0 35.0 0.00 0.00 0.00 51 1011.4
20260503191503 61 217 25.0 33.0 0.00 0.00 0.00 51 1011.4
20260503191003 61 218 22.0 30.0 0.00 0.00 0.00 50 1011.7
20260503190503 62 216 19.0 31.0 0.00 0.00 0.00 52 1012.1
20260503190024 62 219 23.0 34.0 0.00 0.00 0.00 49 1012.1
20260503185503 61 221 21.0 32.0 0.00 0.00 0.00 52 1012.4
20260503185003 60 222 23.0 33.0 0.00 0.00 0.00 52 1012.8
20260503184503 60 227 21.0 31.0 0.00 0.00 0.00 52 1013.1
20260503184003 60 230 22.0 30.0 0.00 0.00 0.00 51 1013.1
20260503183503 60 223 22.0 30.0 0.00 0.00 0.00 51 1013.1
20260503183024 60 219 19.0 29.0 0.00 0.00 0.00 51 1013.1
20260503182503 60 220 19.0 33.0 0.00 0.00 0.00 50 1013.1
20260503182003 60 219 20.0 27.0 0.00 0.00 0.00 50 1013.1
20260503181524 60 218 19.0 26.0 0.00 0.00 0.00 49 1013.1
20260503181003 60 213 22.0 33.0 0.00 0.00 0.00 48 1013.1
20260503180503 61 227 19.0 24.0 0.00 0.00 0.00 50 1013.1
20260503180003 61 217 21.0 29.0 0.00 0.00 0.00 47 1013.4
20260503175524 61 210 23.0 34.0 0.00 0.00 0.00 47 1013.1
20260503175003 61 212 22.0 31.0 0.00 0.00 0.00 49 1013.1
20260503174503 62 212 25.0 34.0 0.00 0.00 0.00 48 1013.1
20260503174003 62 212 20.0 29.0 0.00 0.00 0.00 49 1013.4
20260503173503 62 210 24.0 36.0 0.00 0.00 0.00 49 1013.1
20260503173003 62 220 20.0 29.0 0.00 0.00 0.00 50 1013.8
20260503172504 62 216 21.0 27.0 0.00 0.00 0.00 48 1013.8
20260503172003 61 222 23.0 30.0 0.00 0.00 0.00 51 1013.8
20260503171503 62 217 19.0 23.0 0.00 0.00 0.00 49 1013.8
20260503171003 61 220 19.0 29.0 0.00 0.00 0.00 51 1013.8
20260503170503 61 211 19.0 26.0 0.00 0.00 0.00 52 1013.8
20260503151003 58 222 17.0 22.0 0.00 0.00 0.00 62 1015.9
20260503150503 58 218 19.0 24.0 0.00 0.00 0.00 61 1016.2
20260503131003 50 225 13.0 19.0 0.00 0.00 0.00 77 1016.6
20260503130503 50 224 13.0 17.0 0.00 0.00 0.00 77 1016.9
20260503110503 40 215 4.0 4.0 0.00 0.00 0.00 85 1016.6
20260503090503 41 221 5.0 7.0 0.00 0.00 0.00 80 1016.9
20260503081503 40 223 4.0 6.0 0.00 0.00 0.00 81 1016.9
20260503081003 40 222 3.0 4.0 0.00 0.00 0.00 81 1016.6
20260503080503 40 224 3.0 4.0 0.00 0.00 0.00 81 1016.9
20260503072503 39 224 2.0 3.0 0.00 0.00 0.00 83 1016.9
20260503072003 39 237 2.0 2.0 0.00 0.00 0.00 83 1016.9
20260503071524 39 232 2.0 2.0 0.00 0.00 0.00 83 1016.9
20260503071003 39 227 2.0 2.0 0.00 0.00 0.00 83 1017.2
20260503070524 39 220 2.0 2.0 0.00 0.00 0.00 83 1016.9
20260503055024 41 228 2.0 3.0 0.00 0.00 0.00 81 1017.6
20260503054503 41 229 3.0 3.0 0.00 0.00 0.00 80 1017.6
20260503054003 41 223 3.0 6.0 0.00 0.00 0.00 80 1017.6
20260503053524 41 229 2.0 3.0 0.00 0.00 0.00 80 1017.6
20260503053024 41 225 2.0 3.0 0.00 0.00 0.00 80 1017.6
20260503052524 42 224 2.0 2.0 0.00 0.00 0.00 79 1017.2
20260503052003 42 227 2.0 3.0 0.00 0.00 0.00 79 1017.6
20260503051503 42 223 3.0 3.0 0.00 0.00 0.00 78 1017.6
20260503051003 42 230 3.0 3.0 0.00 0.00 0.00 78 1017.6
20260503050524 42 234 3.0 4.0 0.00 0.00 0.00 79 1017.6
20260503050003 42 235 2.0 3.0 0.00 0.00 0.00 78 1017.6
20260503045503 42 225 2.0 3.0 0.00 0.00 0.00 77 1017.6
20260503045003 42 224 2.0 3.0 0.00 0.00 0.00 77 1017.6
20260503044503 42 229 2.0 3.0 0.00 0.00 0.00 76 1017.6
20260503044003 42 225 2.0 3.0 0.00 0.00 0.00 76 1017.6
20260503043503 42 220 2.0 2.0 0.00 0.00 0.00 76 1017.6
20260503043003 43 216 2.0 3.0 0.00 0.00 0.00 75 1017.6
20260503042503 43 224 2.0 3.0 0.00 0.00 0.00 75 1017.6
20260503042024 43 226 2.0 3.0 0.00 0.00 0.00 75 1017.6
20260503041503 43 229 2.0 3.0 0.00 0.00 0.00 75 1017.6
20260503041024 43 230 2.0 3.0 0.00 0.00 0.00 74 1017.6
20260503040503 43 227 2.0 2.0 0.00 0.00 0.00 74 1017.6
20260503040003 43 215 2.0 2.0 0.00 0.00 0.00 73 1017.6
20260503035503 44 219 3.0 3.0 0.00 0.00 0.00 72 1017.6
20260503035003 44 222 2.0 2.0 0.00 0.00 0.00 71 1017.6
20260503034503 44 223 2.0 3.0 0.00 0.00 0.00 71 1017.6
20260503034003 45 219 2.0 3.0 0.00 0.00 0.00 70 1017.6
20260503033503 45 223 3.0 3.0 0.00 0.00 0.00 69 1017.6
20260503033024 45 224 2.0 3.0 0.00 0.00 0.00 69 1017.6
20260503032524 45 220 2.0 3.0 0.00 0.00 0.00 69 1017.9
20260503032003 45 227 2.0 3.0 0.00 0.00 0.00 68 1017.9
20260503031503 45 261 2.0 3.0 0.00 0.00 0.00 64 1017.9
20260503031003 45 265 1.0 2.0 0.00 0.00 0.00 65 1017.9
20260503030524 45 0 0.0 0.0 0.00 0.00 0.00 66 1017.9
20260503030003 45 0 0.0 0.0 0.00 0.00 0.00 68 1017.9
20260503025524 45 0 0.0 0.0 0.00 0.00 0.00 65 1017.9
20260503025003 45 0 0.0 0.0 0.00 0.00 0.00 66 1017.9
20260503024503 46 0 0.0 0.0 0.00 0.00 0.00 66 1017.9
20260503024003 46 0 0.0 0.0 0.00 0.00 0.00 65 1017.9
20260503023503 46 0 0.0 0.0 0.00 0.00 0.00 62 1017.6
20260503023024 46 0 0.0 0.0 0.00 0.00 0.00 62 1017.6
20260503022503 46 0 0.0 0.0 0.00 0.00 0.00 61 1017.6
20260503022024 47 0 0.0 0.0 0.00 0.00 0.00 62 1017.6
20260503021503 47 0 0.0 0.0 0.00 0.00 0.00 63 1017.6
20260503021024 47 0 0.0 0.0 0.00 0.00 0.00 62 1017.6
20260503020503 47 266 1.0 1.0 0.00 0.00 0.00 61 1017.6
20260503020003 47 0 0.0 0.0 0.00 0.00 0.00 61 1017.6
20260503015524 47 0 0.0 0.0 0.00 0.00 0.00 68 1017.6
20260503015025 48 0 0.0 0.0 0.00 0.00 0.00 68 1017.6
20260503014503 48 0 0.0 0.0 0.00 0.00 0.00 63 1017.6
20260503014003 48 0 0.0 0.0 0.00 0.00 0.00 56 1017.2
20260503013524 48 0 0.0 0.0 0.00 0.00 0.00 57 1017.6
20260503013003 49 0 0.0 0.0 0.00 0.00 0.00 58 1017.2
20260503012503 49 0 0.0 0.0 0.00 0.00 0.00 54 1017.2
20260503012003 50 0 0.0 0.0 0.00 0.00 0.00 51 1017.2
20260503011524 50 0 0.0 0.0 0.00 0.00 0.00 50 1017.2
20260503011003 51 0 0.0 0.0 0.00 0.00 0.00 56 1017.2
20260503010503 51 0 0.0 0.0 0.00 0.00 0.00 56 1017.2
20260503010024 52 281 0.0 0.0 0.00 0.00 0.00 49 1016.9
20260503005524 52 311 0.0 1.0 0.00 0.00 0.00 48 1017.2
20260503005003 52 0 0.0 0.0 0.00 0.00 0.00 48 1017.2
20260503004503 53 0 0.0 0.0 0.00 0.00 0.00 50 1017.2
20260503004003 54 0 0.0 0.0 0.00 0.00 0.00 46 1017.2
20260503003503 55 0 0.0 0.0 0.00 0.00 0.00 45 1017.2
20260503003003 55 346 0.0 0.0 0.00 0.00 0.00 43 1017.2
20260503002503 55 349 1.0 2.0 0.00 0.00 0.00 41 1016.9